Location: El Hornillo
(40.2499°N, 5.1036°W)
Time: 10:17:44
(UTC+00:00)

Cosmos 1802 Rocket - Pass Details

Date: 05 August 2024
Orbit: 954 x 1010 km, 82.9° (Epoch: 14 September)

Event Time Altitude Azimuth Distance (km) Brightness Sun altitude
Exits shadow 23:32:16 56° 281° (W) 1,137 4.3 -31.8°
Drops below altitude 10° 23:38:18 10° 359° (N) 2,695 7.1 -32.0°
Sets 23:40:52 0° 3° (N) 3,642 8.0 -32.2°
